| time (UTC) | temp F | wind direction | speed MPH | gust MPH | rain 1hr in | rain 24hr in | rain mn in | humidity % | barometer mb |
| 20260503002036 | 50 | 34 | 0.0 | 0.0 | 0.00 | 0.08 | 0.08 | 92 | 3411.0 |
| 20260503001532 | 50 | 34 | 0.0 | 0.0 | 0.00 | 0.08 | 0.08 | 92 | 3410.9 |
| 20260503001031 | 50 | 34 | 0.0 | 0.0 | 0.00 | 0.08 | 0.08 | 90 | 3410.5 |
| 20260503000527 | 51 | 34 | 0.0 | 0.0 | 0.00 | 0.08 | 0.08 | 88 | 3410.7 |
| 20260503000024 | 51 | 34 | 0.0 | 0.0 | 0.00 | 0.08 | 0.08 | 86 | 3410.8 |
| 20260502235520 | 51 | 31 | 0.0 | 0.0 | 0.00 | 0.08 | 0.08 | 83 | 3410.7 |
| 20260502235019 | 51 | 208 | 0.0 | 2.0 | 0.00 | 0.08 | 0.08 | 85 | 3410.9 |
| 20260502234514 | 51 | 208 | 0.0 | 0.0 | 0.00 | 0.08 | 0.08 | 83 | 3410.5 |
| 20260502234012 | 51 | 241 | 2.0 | 3.0 | 0.00 | 0.08 | 0.08 | 85 | 3410.3 |
| 20260502233512 | 51 | 49 | 0.0 | 2.0 | 0.00 | 0.08 | 0.08 | 89 | 3410.5 |
| 20260502233010 | 51 | 353 | 1.0 | 2.0 | 0.00 | 0.08 | 0.08 | 92 | 3410.5 |
| 20260502232506 | 50 | 51 | 0.0 | 0.0 | 0.00 | 0.08 | 0.08 | 94 | 3410.6 |
| 20260502232003 | 50 | 50 | 0.0 | 2.0 | 0.00 | 0.08 | 0.08 | 96 | 3410.6 |
| 20260502231500 | 50 | 89 | 0.0 | 0.0 | 0.00 | 0.08 | 0.08 | 97 | 3410.5 |
| 20260502230958 | 50 | 176 | 0.0 | 2.0 | 0.00 | 0.08 | 0.08 | 98 | 3410.5 |
| 20260502230456 | 50 | 148 | 1.0 | 2.0 | 0.00 | 0.08 | 0.08 | 99 | 3410.4 |
| 20260502225954 | 50 | 46 | 0.0 | 0.0 | 0.00 | 0.08 | 0.08 | 99 | 3410.7 |
| 20260502225450 | 50 | 39 | 0.0 | 0.0 | 0.00 | 0.08 | 0.08 | 99 | 3410.4 |
| 20260502224947 | 50 | 38 | 0.0 | 0.0 | 0.00 | 0.08 | 0.08 | 99 | 3410.3 |
| 20260502224443 | 51 | 44 | 0.0 | 0.0 | 0.00 | 0.08 | 0.08 | 99 | 3410.4 |
| 20260502223940 | 51 | 44 | 0.0 | 0.0 | 0.00 | 0.08 | 0.08 | 99 | 3410.4 |
| 20260502223438 | 51 | 55 | 0.0 | 0.0 | 0.00 | 0.08 | 0.08 | 99 | 3410.5 |
| 20260502222936 | 51 | 57 | 0.0 | 0.0 | 0.00 | 0.08 | 0.08 | 99 | 3410.4 |
| 20260502222433 | 51 | 56 | 0.0 | 0.0 | 0.00 | 0.08 | 0.08 | 99 | 3410.5 |
| 20260502221928 | 51 | 44 | 0.0 | 0.0 | 0.00 | 0.08 | 0.08 | 99 | 3410.5 |
| 20260502221425 | 51 | 44 | 0.0 | 0.0 | 0.00 | 0.08 | 0.08 | 99 | 3410.3 |
| 20260502220922 | 51 | 44 | 0.0 | 0.0 | 0.00 | 0.08 | 0.08 | 99 | 3410.5 |
| 20260502220418 | 51 | 44 | 0.0 | 0.0 | 0.00 | 0.08 | 0.08 | 99 | 3410.4 |
| 20260502215914 | 51 | 44 | 0.0 | 0.0 | 0.00 | 0.08 | 0.08 | 99 | 3410.5 |
| 20260502215412 | 51 | 44 | 0.0 | 0.0 | 0.00 | 0.08 | 0.08 | 99 | 3410.3 |
| 20260502214909 | 51 | 44 | 0.0 | 0.0 | 0.00 | 0.08 | 0.08 | 98 | 3410.3 |
| 20260502214405 | 50 | 44 | 0.0 | 0.0 | 0.00 | 0.08 | 0.08 | 98 | 3410.3 |
| 20260502213903 | 50 | 43 | 0.0 | 0.0 | 0.00 | 0.08 | 0.08 | 98 | 3410.4 |
| 20260502213359 | 51 | 57 | 0.0 | 2.0 | 0.00 | 0.08 | 0.08 | 98 | 3410.0 |
| 20260502212859 | 51 | 71 | 0.0 | 0.0 | 0.07 | 0.08 | 0.08 | 98 | 3410.4 |
| 20260502212356 | 51 | 59 | 0.0 | 0.0 | 0.07 | 0.08 | 0.08 | 98 | 3410.3 |
| 20260502211853 | 51 | 20 | 2.0 | 2.0 | 0.00 | 0.07 | 0.07 | 98 | 3410.2 |
| 20260502211349 | 51 | 53 | 0.0 | 0.0 | 0.05 | 0.07 | 0.07 | 98 | 3410.2 |
| 20260502210847 | 51 | 48 | 0.0 | 0.0 | 0.05 | 0.07 | 0.07 | 98 | 3410.5 |
| 20260502210344 | 51 | 30 | 0.0 | 0.0 | 0.00 | 0.06 | 0.06 | 97 | 3410.2 |
| 20260502205841 | 51 | 50 | 0.0 | 2.0 | 0.00 | 0.06 | 0.06 | 97 | 3410.3 |
| 20260502205337 | 51 | 54 | 0.0 | 0.0 | 0.00 | 0.06 | 0.06 | 96 | 3410.3 |
| 20260502204834 | 51 | 54 | 0.0 | 0.0 | 0.00 | 0.06 | 0.06 | 96 | 3410.1 |
| 20260502204331 | 51 | 54 | 0.0 | 0.0 | 0.00 | 0.06 | 0.06 | 95 | 3410.2 |
| 20260502203829 | 50 | 60 | 0.0 | 0.0 | 0.12 | 0.06 | 0.06 | 93 | 3410.2 |
| 20260502203326 | 50 | 58 | 0.0 | 0.0 | 0.19 | 0.06 | 0.06 | 92 | 3410.2 |
| 20260502202826 | 51 | 354 | 2.0 | 3.0 | 0.12 | 0.04 | 0.04 | 91 | 3410.2 |
| 20260502202324 | 52 | 58 | 0.0 | 0.0 | 0.12 | 0.03 | 0.03 | 89 | 3410.0 |
| 20260502201822 | 52 | 334 | 2.0 | 3.0 | 0.07 | 0.02 | 0.02 | 86 | 3410.2 |
| 20260502201318 | 53 | 199 | 2.0 | 3.0 | 0.12 | 0.02 | 0.02 | 82 | 3410.2 |
| 20260502200814 | 54 | 105 | 0.0 | 2.0 | 0.05 | 0.01 | 0.01 | 79 | 3410.1 |
| 20260502200310 | 55 | 82 | 0.0 | 0.0 | 0.00 | 0.00 | 0.00 | 75 | 3410.1 |
| 20260502195808 | 55 | 98 | 0.0 | 0.0 | 0.00 | 0.00 | 0.00 | 72 | 3410.1 |
| 20260502195305 | 55 | 117 | 2.0 | 3.0 | 0.00 | 0.00 | 0.00 | 71 | 3409.9 |
| 20260502194801 | 56 | 126 | 1.0 | 2.0 | 0.00 | 0.00 | 0.00 | 70 | 3410.0 |
| 20260502194259 | 56 | 175 | 3.0 | 5.0 | 0.00 | 0.00 | 0.00 | 68 | 3409.8 |
| 20260502193754 | 56 | 135 | 0.0 | 0.0 | 0.00 | 0.00 | 0.00 | 69 | 3409.6 |
| 20260502193252 | 57 | 140 | 1.0 | 3.0 | 0.00 | 0.00 | 0.00 | 68 | 3409.8 |
| 20260502192751 | 58 | 74 | 0.0 | 2.0 | 0.00 | 0.00 | 0.00 | 67 | 3409.5 |
| 20260502192249 | 58 | 60 | 0.0 | 0.0 | 0.00 | 0.00 | 0.00 | 65 | 3409.5 |
| 20260502191745 | 59 | 84 | 0.0 | 2.0 | 0.00 | 0.00 | 0.00 | 65 | 3409.7 |
| 20260502191244 | 59 | 113 | 0.0 | 0.0 | 0.00 | 0.00 | 0.00 | 66 | 3409.6 |
| 20260502190741 | 59 | 109 | 0.0 | 0.0 | 0.00 | 0.00 | 0.00 | 65 | 3409.6 |
| 20260502190239 | 60 | 60 | 1.0 | 2.0 | 0.00 | 0.00 | 0.00 | 61 | 3409.6 |
| 20260502185738 | 61 | 152 | 1.0 | 3.0 | 0.00 | 0.00 | 0.00 | 62 | 3409.8 |
| 20260502185235 | 61 | 91 | 1.0 | 2.0 | 0.00 | 0.00 | 0.00 | 62 | 3409.6 |
| 20260502184731 | 61 | 66 | 1.0 | 2.0 | 0.00 | 0.00 | 0.00 | 65 | 3409.6 |
| 20260502184227 | 59 | 115 | 1.0 | 2.0 | 0.00 | 0.00 | 0.00 | 66 | 3409.6 |
| 20260502183724 | 58 | 139 | 3.0 | 3.0 | 0.00 | 0.00 | 0.00 | 68 | 3409.6 |
| 20260502183220 | 58 | 14 | 0.0 | 0.0 | 0.00 | 0.00 | 0.00 | 65 | 3409.9 |
| 20260502182716 | 59 | 161 | 2.0 | 3.0 | 0.00 | 0.00 | 0.00 | 63 | 3409.8 |
| 20260502182211 | 60 | 68 | 1.0 | 2.0 | 0.00 | 0.00 | 0.00 | 61 | 3409.7 |
| 20260502181709 | 61 | 335 | 1.0 | 2.0 | 0.00 | 0.00 | 0.00 | 57 | 3409.5 |
| 20260502181208 | 62 | 270 | 1.0 | 2.0 | 0.00 | 0.00 | 0.00 | 57 | 3409.6 |
| 20260502180704 | 63 | 59 | 0.0 | 0.0 | 0.00 | 0.00 | 0.00 | 57 | 3409.6 |
| 20260502180202 | 62 | 337 | 2.0 | 3.0 | 0.00 | 0.00 | 0.00 | 63 | 3409.6 |
| 20260502170120 | 60 | 136 | 0.0 | 0.0 | 0.00 | 0.00 | 0.00 | 62 | 3410.5 |
| 20260502164107 | 61 | 354 | 2.0 | 3.0 | 0.00 | 0.00 | 0.00 | 56 | 3410.4 |
| 20260502163603 | 60 | 114 | 0.0 | 0.0 | 0.00 | 0.00 | 0.00 | 61 | 3410.6 |
| 20260502163100 | 60 | 3 | 3.0 | 3.0 | 0.00 | 0.00 | 0.00 | 58 | 3410.7 |
| 20260502162556 | 60 | 276 | 3.0 | 7.0 | 0.00 | 0.00 | 0.00 | 58 | 3410.6 |
| 20260502162053 | 60 | 337 | 0.0 | 2.0 | 0.00 | 0.00 | 0.00 | 58 | 3410.6 |
| 20260502161550 | 60 | 114 | 0.0 | 2.0 | 0.00 | 0.00 | 0.00 | 63 | 3410.7 |
| 20260502161048 | 60 | 26 | 3.0 | 5.0 | 0.00 | 0.00 | 0.00 | 59 | 3410.5 |
| 20260502160546 | 59 | 127 | 2.0 | 3.0 | 0.00 | 0.00 | 0.00 | 60 | 3410.9 |
| 20260502151959 | 57 | 59 | 0.0 | 2.0 | 0.00 | 0.00 | 0.00 | 74 | 3410.9 |
| 20260502151455 | 56 | 13 | 1.0 | 2.0 | 0.00 | 0.00 | 0.00 | 72 | 3410.9 |
| 20260502150952 | 56 | 111 | 0.0 | 0.0 | 0.00 | 0.00 | 0.00 | 74 | 3410.7 |
| 20260502150450 | 56 | 117 | 1.0 | 2.0 | 0.00 | 0.00 | 0.00 | 76 | 3410.7 |
| 20260502130336 | 45 | 265 | 0.0 | 0.0 | 0.00 | 0.00 | 0.00 | 99 | 3410.3 |
| 20260502123318 | 42 | 265 | 0.0 | 0.0 | 0.00 | 0.00 | 0.00 | 99 | 3410.2 |
| 20260502122815 | 42 | 265 | 0.0 | 0.0 | 0.00 | 0.00 | 0.00 | 99 | 3410.4 |
| 20260502122310 | 42 | 265 | 0.0 | 0.0 | 0.00 | 0.00 | 0.00 | 99 | 3410.3 |
| 20260502121809 | 41 | 265 | 0.0 | 0.0 | 0.00 | 0.00 | 0.00 | 99 | 3410.2 |
| 20260502121306 | 41 | 265 | 0.0 | 0.0 | 0.00 | 0.00 | 0.00 | 99 | 3410.2 |
| 20260502120803 | 41 | 265 | 0.0 | 0.0 | 0.00 | 0.00 | 0.00 | 99 | 3410.4 |
| 20260502120300 | 41 | 265 | 0.0 | 0.0 | 0.00 | 0.00 | 0.00 | 99 | 3410.1 |
| 20260502115757 | 41 | 265 | 0.0 | 0.0 | 0.00 | 0.00 | 0.00 | 99 | 3410.0 |
| 20260502115248 | 41 | 265 | 0.0 | 0.0 | 0.00 | 0.00 | 0.00 | 99 | 3410.1 |
| 20260502114744 | 41 | 265 | 0.0 | 0.0 | 0.00 | 0.00 | 0.00 | 99 | 3410.0 |
| 20260502114241 | 41 | 265 | 0.0 | 0.0 | 0.00 | 0.00 | 0.00 | 99 | 3410.0 |
| 20260502113738 | 40 | 265 | 0.0 | 0.0 | 0.00 | 0.00 | 0.00 | 99 | 3410.0 |
| 20260502113236 | 40 | 265 | 0.0 | 0.0 | 0.00 | 0.00 | 0.00 | 99 | 3409.7 |
| 20260502112734 | 40 | 265 | 0.0 | 0.0 | 0.00 | 0.00 | 0.00 | 99 | 3409.8 |
| 20260502112231 | 40 | 265 | 0.0 | 0.0 | 0.00 | 0.00 | 0.00 | 99 | 3409.6 |
| 20260502111728 | 39 | 265 | 0.0 | 0.0 | 0.00 | 0.00 | 0.00 | 99 | 3409.6 |
| 20260502111225 | 39 | 265 | 0.0 | 0.0 | 0.00 | 0.00 | 0.00 | 99 | 3409.5 |
| 20260502110723 | 39 | 265 | 0.0 | 0.0 | 0.00 | 0.00 | 0.00 | 99 | 3409.4 |
| 20260502110221 | 39 | 265 | 0.0 | 0.0 | 0.00 | 0.00 | 0.00 | 99 | 3409.6 |
| 20260502105719 | 39 | 265 | 0.0 | 0.0 | 0.00 | 0.00 | 0.00 | 99 | 3409.4 |
| 20260502105215 | 40 | 265 | 0.0 | 0.0 | 0.00 | 0.00 | 0.00 | 99 | 3409.4 |
| 20260502104712 | 40 | 265 | 0.0 | 0.0 | 0.00 | 0.00 | 0.00 | 99 | 3409.3 |
| 20260502104210 | 40 | 265 | 0.0 | 0.0 | 0.00 | 0.00 | 0.00 | 99 | 3409.3 |
| 20260502103707 | 40 | 265 | 0.0 | 0.0 | 0.00 | 0.00 | 0.00 | 99 | 3409.5 |
| 20260502103205 | 40 | 265 | 0.0 | 0.0 | 0.00 | 0.00 | 0.00 | 99 | 3409.3 |
| 20260502102702 | 40 | 265 | 0.0 | 0.0 | 0.00 | 0.00 | 0.00 | 99 | 3409.1 |
| 20260502102158 | 40 | 265 | 0.0 | 0.0 | 0.00 | 0.00 | 0.00 | 99 | 3409.2 |
| 20260502101656 | 41 | 265 | 0.0 | 0.0 | 0.00 | 0.00 | 0.00 | 99 | 3409.2 |
| 20260502101154 | 41 | 265 | 0.0 | 0.0 | 0.00 | 0.00 | 0.00 | 99 | 3409.3 |
| 20260502100653 | 41 | 265 | 0.0 | 0.0 | 0.00 | 0.00 | 0.00 | 99 | 3409.4 |
| 20260502100150 | 41 | 265 | 0.0 | 0.0 | 0.00 | 0.00 | 0.00 | 99 | 3409.3 |
| 20260502091124 | 39 | 265 | 0.0 | 0.0 | 0.00 | 0.00 | 0.00 | 99 | 3409.1 |
| 20260502090621 | 39 | 265 | 0.0 | 0.0 | 0.00 | 0.00 | 0.00 | 99 | 3409.2 |
| 20260502090118 | 40 | 265 | 0.0 | 0.0 | 0.00 | 0.00 | 0.00 | 99 | 3409.1 |
| 20260502071516 | 41 | 265 | 0.0 | 0.0 | 0.00 | 0.00 | 0.00 | 98 | 3409.3 |
| 20260502071014 | 41 | 265 | 0.0 | 0.0 | 0.00 | 0.00 | 0.00 | 98 | 3409.6 |
| 20260502070511 | 41 | 265 | 0.0 | 0.0 | 0.00 | 0.00 | 0.00 | 98 | 3409.5 |
| 20260502070010 | 41 | 265 | 0.0 | 0.0 | 0.00 | 0.00 | 0.00 | 98 | 3409.8 |
| 20260502065508 | 41 | 265 | 0.0 | 0.0 | 0.00 | 0.00 | 0.00 | 98 | 3409.6 |
| 20260502065005 | 41 | 265 | 0.0 | 0.0 | 0.00 | 0.00 | 0.00 | 98 | 3409.7 |
| 20260502064504 | 42 | 265 | 0.0 | 0.0 | 0.00 | 0.00 | 0.00 | 98 | 3409.6 |
| 20260502064000 | 42 | 265 | 0.0 | 0.0 | 0.00 | 0.00 | 0.00 | 98 | 3409.8 |
| 20260502063459 | 42 | 265 | 0.0 | 0.0 | 0.00 | 0.00 | 0.00 | 97 | 3409.9 |
| 20260502062955 | 42 | 265 | 0.0 | 0.0 | 0.00 | 0.00 | 0.00 | 97 | 3409.7 |
| 20260502062452 | 42 | 265 | 0.0 | 0.0 | 0.00 | 0.00 | 0.00 | 97 | 3409.9 |
| 20260502061951 | 42 | 265 | 0.0 | 0.0 | 0.00 | 0.00 | 0.00 | 97 | 3409.9 |
| 20260502061449 | 42 | 265 | 0.0 | 0.0 | 0.00 | 0.00 | 0.00 | 97 | 3409.8 |
| 20260502060944 | 42 | 265 | 0.0 | 0.0 | 0.00 | 0.00 | 0.00 | 97 | 3409.6 |
| 20260502060440 | 42 | 265 | 0.0 | 0.0 | 0.00 | 0.00 | 0.00 | 97 | 3409.8 |
| 20260502055937 | 42 | 265 | 0.0 | 0.0 | 0.00 | 0.00 | 0.00 | 97 | 3409.7 |
| 20260502055434 | 42 | 265 | 0.0 | 0.0 | 0.00 | 0.00 | 0.00 | 96 | 3409.9 |
| 20260502054929 | 42 | 265 | 0.0 | 0.0 | 0.00 | 0.00 | 0.00 | 96 | 3410.1 |
| 20260502054426 | 42 | 265 | 0.0 | 0.0 | 0.00 | 0.00 | 0.00 | 96 | 3409.8 |
| 20260502053923 | 42 | 265 | 0.0 | 0.0 | 0.00 | 0.00 | 0.00 | 96 | 3409.8 |
| 20260502053420 | 42 | 265 | 0.0 | 0.0 | 0.00 | 0.00 | 0.00 | 96 | 3409.6 |
| 20260502052918 | 43 | 265 | 0.0 | 0.0 | 0.00 | 0.00 | 0.00 | 96 | 3409.8 |
| 20260502052416 | 43 | 265 | 0.0 | 0.0 | 0.00 | 0.00 | 0.00 | 95 | 3409.7 |
| 20260502051914 | 43 | 265 | 0.0 | 0.0 | 0.00 | 0.00 | 0.00 | 95 | 3409.7 |
| 20260502051412 | 43 | 265 | 0.0 | 0.0 | 0.00 | 0.00 | 0.00 | 95 | 3410.1 |
| 20260502050908 | 43 | 265 | 0.0 | 0.0 | 0.00 | 0.00 | 0.00 | 95 | 3410.2 |
| 20260502050405 | 43 | 265 | 0.0 | 0.0 | 0.00 | 0.00 | 0.00 | 95 | 3410.1 |
| 20260502045902 | 43 | 265 | 0.0 | 0.0 | 0.00 | 0.00 | 0.00 | 94 | 3410.3 |
| 20260502045359 | 44 | 265 | 0.0 | 0.0 | 0.00 | 0.00 | 0.00 | 94 | 3410.1 |
| 20260502044856 | 44 | 265 | 0.0 | 0.0 | 0.00 | 0.00 | 0.00 | 94 | 3410.1 |
| 20260502044351 | 44 | 265 | 0.0 | 0.0 | 0.00 | 0.00 | 0.00 | 94 | 3410.1 |
| 20260502043849 | 0 | 0.0 | 0.0 | 0.00 | 0.00 | 0.00 | 3410.5 | ||
| 20260502043346 | 0 | 0.0 | 0.0 | 0.00 | 0.00 | 0.00 | 3410.4 | ||
| 20260502042840 | 44 | 265 | 0.0 | 0.0 | 0.00 | 0.00 | 0.00 | 92 | 3410.6 |
| 20260502042338 | 44 | 265 | 0.0 | 0.0 | 0.00 | 0.00 | 0.00 | 92 | 3410.3 |
| 20260502041835 | 44 | 265 | 0.0 | 0.0 | 0.00 | 0.00 | 0.00 | 92 | 3410.4 |
| 20260502041332 | 44 | 265 | 0.0 | 0.0 | 0.00 | 0.00 | 0.00 | 92 | 3410.2 |
| 20260502040829 | 44 | 265 | 0.0 | 0.0 | 0.00 | 0.00 | 0.00 | 91 | 3410.5 |
| 20260502040326 | 44 | 265 | 0.0 | 0.0 | 0.00 | 0.00 | 0.00 | 91 | 3410.5 |
| 20260502035822 | 44 | 265 | 0.0 | 0.0 | 0.00 | 0.00 | 0.00 | 91 | 3410.3 |
| 20260502035319 | 45 | 265 | 0.0 | 0.0 | 0.00 | 0.00 | 0.00 | 90 | 3410.4 |
| 20260502034817 | 45 | 265 | 0.0 | 0.0 | 0.00 | 0.00 | 0.00 | 90 | 3410.5 |
| 20260502034315 | 45 | 265 | 0.0 | 0.0 | 0.00 | 0.00 | 0.00 | 89 | 3410.5 |
| 20260502033813 | 45 | 265 | 0.0 | 0.0 | 0.00 | 0.00 | 0.00 | 88 | 3410.7 |
| 20260502033310 | 46 | 265 | 0.0 | 0.0 | 0.00 | 0.00 | 0.00 | 88 | 3410.7 |
| 20260502032807 | 46 | 265 | 0.0 | 0.0 | 0.00 | 0.00 | 0.00 | 88 | 3410.6 |
| 20260502032305 | 46 | 265 | 0.0 | 0.0 | 0.00 | 0.00 | 0.00 | 87 | 3410.7 |
| 20260502031800 | 46 | 265 | 0.0 | 0.0 | 0.00 | 0.00 | 0.00 | 87 | 3410.8 |
| 20260502031259 | 46 | 265 | 0.0 | 0.0 | 0.00 | 0.00 | 0.00 | 86 | 3410.8 |
| 20260502030757 | 47 | 265 | 0.0 | 0.0 | 0.00 | 0.00 | 0.00 | 85 | 3410.6 |
| 20260502030254 | 47 | 265 | 0.0 | 0.0 | 0.00 | 0.00 | 0.00 | 85 | 3410.8 |
| 20260502025751 | 47 | 265 | 0.0 | 0.0 | 0.00 | 0.00 | 0.00 | 85 | 3410.6 |
| 20260502025249 | 47 | 265 | 0.0 | 0.0 | 0.00 | 0.00 | 0.00 | 84 | 3410.5 |
| 20260502024747 | 47 | 265 | 0.0 | 0.0 | 0.00 | 0.00 | 0.00 | 83 | 3410.7 |
| 20260502024244 | 47 | 265 | 0.0 | 0.0 | 0.00 | 0.00 | 0.00 | 83 | 3410.4 |
| 20260502023742 | 48 | 265 | 0.0 | 0.0 | 0.00 | 0.00 | 0.00 | 82 | 3410.5 |
| 20260502023240 | 48 | 265 | 0.0 | 0.0 | 0.00 | 0.00 | 0.00 | 81 | 3410.5 |
| 20260502022738 | 48 | 265 | 0.0 | 0.0 | 0.00 | 0.00 | 0.00 | 80 | 3410.4 |
| 20260502022233 | 49 | 265 | 0.0 | 0.0 | 0.00 | 0.00 | 0.00 | 80 | 3410.4 |
| 20260502021731 | 49 | 265 | 0.0 | 0.0 | 0.00 | 0.00 | 0.00 | 79 | 3410.5 |
| 20260502021228 | 49 | 265 | 0.0 | 0.0 | 0.00 | 0.00 | 0.00 | 79 | 3410.4 |
| 20260502020725 | 50 | 265 | 0.0 | 0.0 | 0.00 | 0.00 | 0.00 | 77 | 3410.0 |
| 20260502020222 | 50 | 265 | 0.0 | 0.0 | 0.00 | 0.00 | 0.00 | 77 | 3410.3 |
| 20260502015720 | 50 | 265 | 0.0 | 0.0 | 0.00 | 0.00 | 0.00 | 76 | 3410.0 |
| 20260502015216 | 51 | 265 | 0.0 | 0.0 | 0.00 | 0.00 | 0.00 | 76 | 3410.1 |
| 20260502014714 | 51 | 265 | 0.0 | 0.0 | 0.00 | 0.00 | 0.00 | 74 | 3410.1 |
| 20260502014210 | 51 | 265 | 0.0 | 0.0 | 0.00 | 0.00 | 0.00 | 73 | 3410.2 |
| 20260502013707 | 52 | 265 | 0.0 | 0.0 | 0.00 | 0.00 | 0.00 | 73 | 3410.2 |
| 20260502013202 | 52 | 265 | 0.0 | 0.0 | 0.00 | 0.00 | 0.00 | 70 | 3410.2 |
| 20260502012659 | 52 | 265 | 0.0 | 0.0 | 0.00 | 0.00 | 0.00 | 69 | 3410.0 |
| 20260502012158 | 53 | 265 | 0.0 | 0.0 | 0.00 | 0.00 | 0.00 | 68 | 3409.9 |
| 20260502011654 | 53 | 265 | 0.0 | 0.0 | 0.00 | 0.00 | 0.00 | 67 | 3409.8 |
| 20260502011149 | 53 | 265 | 0.0 | 0.0 | 0.00 | 0.00 | 0.00 | 67 | 3409.8 |
| 20260502010648 | 54 | 265 | 0.0 | 0.0 | 0.00 | 0.00 | 0.00 | 65 | 3409.5 |
| 20260502010143 | 54 | 265 | 0.0 | 0.0 | 0.00 | 0.00 | 0.00 | 63 | 3409.5 |
| 20260502005641 | 55 | 265 | 0.0 | 0.0 | 0.00 | 0.00 | 0.00 | 63 | 3409.3 |
| 20260502005139 | 55 | 265 | 1.0 | 2.0 | 0.00 | 0.00 | 0.00 | 60 | 3409.4 |
| 20260502004634 | 55 | 22 | 0.0 | 0.0 | 0.00 | 0.00 | 0.00 | 60 | 3409.1 |
| 20260502004131 | 56 | 22 | 0.0 | 0.0 | 0.00 | 0.00 | 0.00 | 60 | 3408.8 |
| 20260502003629 | 56 | 22 | 0.0 | 0.0 | 0.00 | 0.00 | 0.00 | 59 | 3408.7 |
| 20260502003126 | 56 | 22 | 0.0 | 0.0 | 0.00 | 0.00 | 0.00 | 57 | 3408.8 |
| 20260502002622 | 57 | 22 | 0.0 | 0.0 | 0.00 | 0.00 | 0.00 | 58 | 3408.8 |